User: anonymous   Login
Location: Bergnerzell
(49.1816°N, 10.2565°E)
Time: 01:40:27
(UTC+00:00)
Language:

Cosmos 2082 Rocket - Orbit

View from above orbital plane
View from above orbital plane
View from above satellite
View from above satellite

Ground track
Ground track

The orbit data is extracted from the following two-line orbital elements,

1 20625U 90046B   24200.48600809 -.00000125  00000-0 -39948-4 0  9994
2 20625  71.0001 116.2058 0012587 142.9079 217.2916 14.14848485763634
Epoch (UTC): 18 July 2024 11:39:51
Eccentricity: 0.0012587
inclination: 71.0001°
perigee height: 834 km
apogee height: 852 km
right ascension of ascending node: 116.2058°
argument of perigee: 142.9079°
revolutions per day: 14.14848485
mean anomaly at epoch: 217.2916°
orbit number at epoch: 76363

The dashed part of the orbit path shows where the satellite is in the earth's shadow,  

DLR